Weather History for K5H4 - March, 2013

Change the Weather History Date:

Saturday, March 9, 2013

  Actual Average (KRUG) Record (KRUG)
Temperature  
Mean Temperature 18 °F -  
Max Temperature 26 °F 33 °F 58 °F (1977)
Min Temperature 10 °F 12 °F -22 °F (1951)
Degree Days  
Heating Degree Days 47    
Moisture  
Dew Point 17 °F    
Average Humidity 92    
Maximum Humidity 100    
Minimum Humidity 80    
Precipitation  
Precipitation 0.05 in - - ()
Sea Level Pressure  
Sea Level Pressure 29.95 in    
Wind  
Wind Speed 8 mph (NNW)    
Max Wind Speed 23 mph    
Max Gust Speed 30 mph    
Visibility 7 miles    
Events Snow    
Averages and records for this station are not official NWS values.
T = Trace of Precipitation, MM = Missing Value Source: NWS Daily Summary

Daily Weather History Graph

Daily Weather History Graph

Search for Another Location

Airport or City:

Trip Planner

Search our weather history database for the weather conditions in past years. The results will help you decide how hot, cold, wet, or windy it might be!

Date:

Astronomy

Mar. 09, 2013 Rise Set
Actual Time 7:04 AM CST 6:36 PM CST
Civil Twilight 6:33 AM CST 7:07 PM CST
Nautical Twilight 5:57 AM CST 7:43 PM CST
Astronomical Twilight 5:21 AM CST 8:19 PM CST
Moon 5:36 AM CST (3/9) 4:35 PM CST (3/9)
Length of Visible Light 12h 34m
Length of Day
11h 32m
Waning Crescent, 5% of the Moon is Illuminated
Mar 9
Waning Crescent
Mar 11
New
Mar 19
First Quarter
Mar 27
Full
Apr 2
Last Quarter

Hourly Weather History & Observations

Time (CST) Temp. Windchill Dew Point Humidity Pressure Visibility Wind Dir Wind Speed Gust Speed Precip Events Conditions
12:15 AM 19.4 °F 12.8 °F 15.8 °F 86% 30.01 in 8.0 mi East 4.6 mph - N/A   Overcast
12:35 AM 19.4 °F 12.8 °F 17.6 °F 93% 30.00 in 8.0 mi East 4.6 mph - N/A   Overcast
12:55 AM 19.4 °F 12.8 °F 17.6 °F 93% 29.99 in 8.0 mi NE 4.6 mph - N/A   Overcast
1:15 AM 17.6 °F 10.7 °F 17.6 °F 100% 29.98 in 8.0 mi NNE 4.6 mph - N/A   Overcast
1:35 AM 17.6 °F 9.3 °F 17.6 °F 100% 29.97 in 7.0 mi NNE 5.8 mph - N/A   Overcast
1:55 AM 17.6 °F 10.7 °F 17.6 °F 100% 29.96 in 8.0 mi ENE 4.6 mph - N/A   Overcast
2:15 AM 19.4 °F 11.5 °F 17.6 °F 93% 29.96 in 7.0 mi North 5.8 mph - N/A   Overcast
2:35 AM 19.4 °F 11.5 °F 17.6 °F 93% 29.95 in 7.0 mi NNE 5.8 mph - N/A   Overcast
2:55 AM 17.6 °F 9.3 °F 15.8 °F 93% 29.94 in 7.0 mi NNE 5.8 mph - N/A   Overcast
3:15 AM 17.6 °F 9.3 °F 15.8 °F 93% 29.93 in 8.0 mi NNE 5.8 mph - N/A   Overcast
3:35 AM 17.6 °F 10.7 °F 15.8 °F 93% 29.93 in 7.0 mi North 4.6 mph - N/A   Overcast
3:55 AM 17.6 °F 9.3 °F 15.8 °F 93% 29.92 in 7.0 mi NNE 5.8 mph - N/A   Overcast
4:15 AM 17.6 °F 10.7 °F 15.8 °F 93% 29.92 in 7.0 mi NNE 4.6 mph - N/A   Overcast
4:35 AM 17.6 °F 10.7 °F 17.6 °F 100% 29.92 in 7.0 mi NNE 4.6 mph - N/A   Overcast
4:55 AM 17.6 °F 12.3 °F 17.6 °F 100% 29.92 in 7.0 mi ENE 3.5 mph - N/A   Overcast
5:15 AM 17.6 °F 10.7 °F 17.6 °F 100% 29.92 in 7.0 mi NNE 4.6 mph - N/A   Overcast
5:35 AM 17.6 °F 8.2 °F 17.6 °F 100% 29.91 in 6.0 mi North 6.9 mph - N/A   Overcast
5:55 AM 17.6 °F 9.3 °F 17.6 °F 100% 29.91 in 7.0 mi North 5.8 mph - N/A   Overcast
6:15 AM 17.6 °F 12.3 °F 17.6 °F 100% 29.91 in 6.0 mi NE 3.5 mph - N/A   Overcast
6:35 AM 17.6 °F 12.3 °F 17.6 °F 100% 29.91 in 7.0 mi North 3.5 mph - N/A   Overcast
6:55 AM 17.6 °F 12.3 °F 15.8 °F 93% 29.91 in 5.0 mi North 3.5 mph - N/A   Overcast
7:15 AM 17.6 °F 10.7 °F 15.8 °F 93% 29.91 in 5.0 mi North 4.6 mph - N/A   Overcast
7:35 AM 17.6 °F 12.3 °F 15.8 °F 93% 29.90 in 5.0 mi North 3.5 mph - N/A   Overcast
7:55 AM 17.6 °F - 15.8 °F 93% 29.90 in 5.0 mi Calm Calm - N/A   Overcast
8:15 AM 17.6 °F - 17.6 °F 100% 29.91 in 5.0 mi Calm Calm - N/A   Overcast
8:35 AM 19.4 °F - 17.6 °F 93% 29.91 in 5.0 mi Calm Calm - N/A   Overcast
8:55 AM 19.4 °F 14.3 °F 17.6 °F 93% 29.93 in 5.0 mi SW 3.5 mph - N/A   Overcast
9:15 AM 19.4 °F 14.3 °F 17.6 °F 93% 29.94 in 5.0 mi West 3.5 mph - N/A   Overcast
9:35 AM 19.4 °F 10.4 °F 17.6 °F 93% 29.92 in 5.0 mi WNW 6.9 mph - N/A   Overcast
9:55 AM 19.4 °F 11.5 °F 17.6 °F 93% 29.91 in 5.0 mi WNW 5.8 mph - N/A   Overcast
10:15 AM 21.2 °F 10.1 °F 17.6 °F 86% 29.90 in 5.0 mi NW 10.4 mph - N/A   Mostly Cloudy
10:35 AM 23.0 °F 11.1 °F 17.6 °F 80% 29.90 in 7.0 mi NW 12.7 mph - N/A   Partly Cloudy
10:55 AM 23.0 °F 11.7 °F 17.6 °F 80% 29.89 in 7.0 mi NW 11.5 mph - N/A   Clear
11:15 AM 23.0 °F 12.4 °F 17.6 °F 80% 29.88 in 7.0 mi NW 10.4 mph - N/A   Clear
11:35 AM 23.0 °F 12.4 °F 19.4 °F 86% 29.89 in 7.0 mi WNW 10.4 mph - N/A   Partly Cloudy
11:55 AM 23.0 °F 14.7 °F 19.4 °F 86% 29.89 in 8.0 mi WNW 6.9 mph - N/A   Partly Cloudy
12:15 PM 24.8 °F 16.1 °F 19.4 °F 80% 29.89 in 8.0 mi WNW 8.1 mph - N/A   Mostly Cloudy
12:35 PM 24.8 °F 17.9 °F 19.4 °F 80% 29.89 in 8.0 mi WNW 5.8 mph - N/A   Overcast
12:55 PM 24.8 °F 15.3 °F 21.2 °F 86% 29.89 in 8.0 mi WNW 9.2 mph - N/A   Overcast
1:15 PM 24.8 °F 15.3 °F 23.0 °F 93% 29.89 in 7.0 mi WNW 9.2 mph - N/A   Overcast
1:35 PM 24.8 °F 14.6 °F 23.0 °F 93% 29.89 in 6.0 mi WNW 10.4 mph - N/A   Overcast
1:55 PM 24.8 °F 12.4 °F 23.0 °F 93% 29.89 in 6.0 mi NW 15.0 mph - N/A   Overcast
2:15 PM 24.8 °F 13.4 °F 24.8 °F 100% 29.89 in 5.0 mi NW 12.7 mph - N/A   Overcast
2:35 PM 26.6 °F 16.2 °F 24.8 °F 93% 29.89 in 4.0 mi NW 11.5 mph - N/A Snow Light Snow
2:55 PM 26.6 °F 16.2 °F 24.8 °F 93% 29.88 in 2.5 mi NW 11.5 mph - N/A Snow Light Snow
3:15 PM 26.6 °F 13.4 °F 26.6 °F 100% 29.88 in 2.5 mi NW 18.4 mph - N/A Snow Light Snow
3:35 PM 26.6 °F 13.4 °F 26.6 °F 100% 29.89 in 1.2 mi NW 18.4 mph - 0.04 in Snow Light Snow
3:55 PM 26.6 °F 13.8 °F 26.6 °F 100% 29.89 in 2.5 mi NNW 17.3 mph - 0.05 in Snow Light Snow
4:15 PM 26.6 °F 13.8 °F 24.8 °F 93% 29.91 in 6.0 mi NNW 17.3 mph 24.2 mph N/A Snow Light Snow
4:35 PM 26.6 °F 12.4 °F 24.8 °F 93% 29.91 in 8.0 mi NW 21.9 mph 27.6 mph N/A   Overcast
4:55 PM 24.8 °F 9.6 °F 24.8 °F 100% 29.92 in 2.5 mi NW 23.0 mph 29.9 mph N/A   Overcast
5:15 PM 24.8 °F 10.0 °F 23.0 °F 93% 29.93 in 5.0 mi NW 21.9 mph 27.6 mph N/A   Overcast
5:35 PM 24.8 °F 10.7 °F 21.2 °F 86% 29.95 in 8.0 mi NW 19.6 mph - N/A   Scattered Clouds
5:55 PM 21.2 °F 5.6 °F 19.4 °F 93% 29.96 in 4.0 mi NW 20.7 mph 26.5 mph N/A   Partly Cloudy
6:15 PM 19.4 °F 3.6 °F 17.6 °F 93% 29.96 in 5.0 mi NW 19.6 mph 26.5 mph N/A   Clear
6:35 PM 17.6 °F 1.3 °F 15.8 °F 93% 29.98 in 8.0 mi NW 19.6 mph 24.2 mph N/A   Clear
6:55 PM 17.6 °F 1.3 °F 15.8 °F 93% 29.98 in 8.0 mi NW 19.6 mph - N/A   Partly Cloudy
7:15 PM 15.8 °F -1.5 °F 14.0 °F 93% 30.00 in 8.0 mi NW 20.7 mph - N/A   Partly Cloudy
7:35 PM 15.8 °F -1.1 °F 14.0 °F 93% 30.01 in 10.0 mi NW 19.6 mph - N/A   Clear
7:55 PM 14.0 °F -4.3 °F 10.4 °F 86% 30.02 in 10.0 mi NW 21.9 mph - N/A   Clear
8:15 PM 14.0 °F -3.0 °F 10.4 °F 86% 30.03 in 10.0 mi NW 18.4 mph 26.5 mph N/A   Clear
8:35 PM 12.2 °F -3.7 °F 8.6 °F 85% 30.05 in 10.0 mi NW 15.0 mph - N/A   Clear
8:55 PM 12.2 °F -5.3 °F 10.4 °F 92% 30.05 in 8.0 mi NW 18.4 mph 25.3 mph N/A   Clear
9:15 PM 10.4 °F -7.7 °F 8.6 °F 92% 30.06 in 10.0 mi NW 18.4 mph - N/A   Clear
9:35 PM 10.4 °F -8.2 °F 8.6 °F 92% 30.07 in 10.0 mi NW 19.6 mph - N/A   Clear
9:55 PM 10.4 °F -7.2 °F 8.6 °F 92% 30.08 in 10.0 mi NW 17.3 mph - N/A   Clear
10:15 PM 10.4 °F -7.2 °F 8.6 °F 92% 30.09 in 10.0 mi NW 17.3 mph - N/A   Mostly Cloudy
10:35 PM 10.4 °F -7.2 °F 8.6 °F 92% 30.10 in 10.0 mi NW 17.3 mph - N/A   Overcast
10:55 PM 12.2 °F -4.8 °F 8.6 °F 85% 30.11 in 10.0 mi NW 17.3 mph - N/A   Overcast
11:15 PM 12.2 °F -4.8 °F 8.6 °F 85% 30.11 in 10.0 mi NW 17.3 mph - N/A   Overcast
11:35 PM 12.2 °F -5.3 °F 8.6 °F 85% 30.11 in 10.0 mi NW 18.4 mph 23.0 mph N/A   Overcast
11:55 PM 12.2 °F -4.8 °F 8.6 °F 85% 30.12 in 10.0 mi NW 17.3 mph - N/A   Overcast